Cumberland, WV

8:49 AM EDT on October 22, 2017 (GMT -0400)
Greater Cumberland Regional

Weather History for KCBE - November, 2013

Change the Weather History Date:

Monday, November 25, 2013

  Actual Average (KMRB) Record (KMRB)
Temperature  
Mean Temperature 26 °F -  
Max Temperature 37 °F 50 °F 80 °F (1973)
Min Temperature 15 °F 30 °F 11 °F (1970)
Degree Days  
Heating Degree Days 39    
Moisture  
Dew Point 9 °F    
Average Humidity 49    
Maximum Humidity 86    
Minimum Humidity 26    
Precipitation  
Precipitation 0.00 in - - ()
Sea Level Pressure  
Sea Level Pressure 30.43 in    
Wind  
Wind Speed 2 mph (South)    
Max Wind Speed 8 mph    
Max Gust Speed -    
Visibility 10 miles    
Events      
Averages and records for this station are not official NWS values.
T = Trace of Precipitation, MM = Missing Value Source: NWS Daily Summary

Daily Weather History Graph

Daily Weather History Graph

Search for Another Location

Airport or City:

Trip Planner

Search our weather history database for the weather conditions in past years. The results will help you decide how hot, cold, wet, or windy it might be!

Date:

Astronomy

Nov. 25, 2013 Rise Set
Actual Time 7:10 AM EST 4:53 PM EST
Civil Twilight 6:41 AM EST 5:22 PM EST
Nautical Twilight 6:08 AM EST 5:55 PM EST
Astronomical Twilight 5:35 AM EST 6:28 PM EST
Moon No Moon Rise 12:27 PM EST (11/25)
Length of Visible Light 10h 41m
Length of Day
9h 42m
Waning Gibbous, 51% of the Moon is Illuminated
Nov 25
Waning Gibbous
Nov 25
Last Quarter
Dec 2
New
Dec 9
First Quarter
Dec 17
Full

Hourly Weather History & Observations

Time (EST) Temp. Windchill Dew Point Humidity Pressure Visibility Wind Dir Wind Speed Gust Speed Precip Events Conditions
12:00 AM 23.0 °F - 6.8 °F 50% 30.54 in 10.0 mi Calm Calm - N/A   Clear
12:20 AM 23.0 °F - 5.0 °F 46% 30.53 in 10.0 mi Calm Calm - N/A   Clear
12:40 AM 21.2 °F - 6.8 °F 54% 30.53 in 10.0 mi Calm Calm - N/A   Clear
1:00 AM 21.2 °F 13.6 °F 6.8 °F 54% 30.53 in 10.0 mi WSW 5.8 mph - N/A   Clear
1:20 AM 21.2 °F 16.4 °F 6.8 °F 54% 30.52 in 10.0 mi South 3.5 mph - N/A   Clear
1:40 AM 19.4 °F 12.8 °F 6.8 °F 58% 30.52 in 10.0 mi SSE 4.6 mph - N/A   Clear
2:00 AM 19.4 °F 12.8 °F 8.6 °F 63% 30.52 in 10.0 mi South 4.6 mph - N/A   Clear
2:20 AM 19.4 °F 12.8 °F 8.6 °F 63% 30.53 in 10.0 mi SSW 4.6 mph - N/A   Clear
2:40 AM 19.4 °F 14.3 °F 8.6 °F 63% 30.55 in 10.0 mi SSW 3.5 mph - N/A   Clear
3:00 AM 19.4 °F 14.3 °F 8.6 °F 63% 30.55 in 10.0 mi SSW 3.5 mph - N/A   Clear
3:20 AM 19.4 °F - 8.6 °F 63% 30.55 in 10.0 mi Calm Calm - N/A   Clear
3:40 AM 19.4 °F - 8.6 °F 63% 30.55 in 10.0 mi Calm Calm - N/A   Clear
4:00 AM 21.2 °F 16.4 °F 6.8 °F 54% 30.53 in 10.0 mi West 3.5 mph - N/A   Clear
4:20 AM 17.6 °F 12.3 °F 8.6 °F 68% 30.53 in 10.0 mi ENE 3.5 mph - N/A   Clear
4:40 AM 19.4 °F - 8.6 °F 63% 30.54 in 10.0 mi Calm Calm - N/A   Clear
5:00 AM 19.4 °F - 8.6 °F 63% 30.53 in 10.0 mi Calm Calm - N/A   Clear
5:20 AM 17.6 °F - 10.4 °F 73% 30.52 in 10.0 mi Calm Calm - N/A   Clear
5:40 AM 17.6 °F 12.3 °F 8.6 °F 68% 30.52 in 10.0 mi WSW 3.5 mph - N/A   Clear
6:00 AM 17.6 °F - 10.4 °F 73% 30.52 in 10.0 mi Calm Calm - N/A   Clear
6:20 AM 15.8 °F - 10.4 °F 79% 30.52 in 10.0 mi Calm Calm - N/A   Clear
6:40 AM 15.8 °F - 12.2 °F 86% 30.53 in 10.0 mi Calm Calm - N/A   Clear
7:01 AM 15.8 °F - 12.2 °F 86% 30.53 in 10.0 mi Calm Calm - N/A   Clear
7:21 AM 15.8 °F - 10.4 °F 79% 30.54 in 10.0 mi Calm Calm - N/A   Clear
7:41 AM 17.6 °F - 10.4 °F 73% 30.54 in 10.0 mi Calm Calm - N/A   Clear
8:01 AM 19.4 °F - 12.2 °F 74% 30.54 in 10.0 mi Calm Calm - N/A   Clear
8:21 AM 19.4 °F - 12.2 °F 74% 30.54 in 10.0 mi Calm Calm - N/A   Clear
8:41 AM 23.0 °F - 10.4 °F 59% 30.54 in 10.0 mi Calm Calm - N/A   Clear
9:01 AM 21.2 °F - 10.4 °F 63% 30.53 in 10.0 mi Calm Calm - N/A   Clear
9:21 AM 23.0 °F - 12.2 °F 63% 30.53 in 10.0 mi Calm Calm - N/A   Clear
9:41 AM 26.6 °F 21.2 °F 12.2 °F 55% 30.53 in 10.0 mi SSE 4.6 mph - N/A   Clear
10:01 AM 26.6 °F 19.1 °F 10.4 °F 51% 30.53 in 10.0 mi SSE 6.9 mph - N/A   Clear
10:21 AM 28.4 °F 21.2 °F 8.6 °F 43% 30.52 in 10.0 mi SSE 6.9 mph - N/A   Clear
10:41 AM 30.2 °F 22.6 °F 8.6 °F 40% 30.51 in 10.0 mi SSE 8.1 mph - N/A   Clear
11:01 AM 30.2 °F 25.4 °F 8.6 °F 40% 30.50 in 10.0 mi SSE 4.6 mph - N/A   Clear
11:21 AM 32.0 °F 27.5 °F 6.8 °F 35% 30.48 in 10.0 mi SSE 4.6 mph - N/A   Clear
11:41 AM 32.0 °F - 6.8 °F 35% 30.47 in 10.0 mi Calm Calm - N/A   Clear
12:01 PM 32.0 °F 28.7 °F 6.8 °F 35% 30.45 in 10.0 mi SSE 3.5 mph - N/A   Clear
12:21 PM 33.8 °F - 5.0 °F 30% 30.44 in 10.0 mi Calm Calm - N/A   Clear
12:41 PM 35.6 °F - 5.0 °F 28% 30.42 in 10.0 mi Calm Calm - N/A   Clear
1:01 PM 35.6 °F - 5.0 °F 28% 30.39 in 10.0 mi Calm Calm - N/A   Clear
1:21 PM 35.6 °F 32.8 °F 5.0 °F 28% 30.39 in 10.0 mi SSE 3.5 mph - N/A   Clear
1:41 PM 35.6 °F 30.7 °F 6.8 °F 30% 30.38 in 10.0 mi SE 5.8 mph - N/A   Clear
2:01 PM 37.4 °F 32.8 °F 5.0 °F 26% 30.37 in 10.0 mi South 5.8 mph - N/A   Clear
2:21 PM 35.6 °F 32.8 °F 5.0 °F 28% 30.36 in 10.0 mi SSE 3.5 mph - N/A   Clear
2:41 PM 37.4 °F 34.9 °F 5.0 °F 26% 30.35 in 10.0 mi South 3.5 mph - N/A   Clear
3:01 PM 37.4 °F 34.9 °F 5.0 °F 26% 30.35 in 10.0 mi South 3.5 mph - N/A   Clear
3:21 PM 37.4 °F - 5.0 °F 26% 30.34 in 10.0 mi Calm Calm - N/A   Clear
3:42 PM 37.4 °F - 6.8 °F 28% 30.34 in 10.0 mi Calm Calm - N/A   Clear
4:02 PM 37.4 °F - 8.6 °F 30% 30.34 in 10.0 mi Calm Calm - N/A   Clear
4:22 PM 37.4 °F - 8.6 °F 30% 30.33 in 10.0 mi Calm Calm - N/A   Clear
4:42 PM 35.6 °F - 5.0 °F 28% 30.32 in 10.0 mi Calm Calm - N/A   Clear
5:02 PM 35.6 °F - 6.8 °F 30% 30.32 in 10.0 mi Calm Calm - N/A   Clear
5:22 PM 35.6 °F - 8.6 °F 33% 30.32 in 10.0 mi Calm Calm - N/A   Clear
5:42 PM 35.6 °F - 6.8 °F 30% 30.33 in 10.0 mi Calm Calm - N/A   Clear
6:02 PM 35.6 °F 32.8 °F 8.6 °F 33% 30.32 in 10.0 mi NNW 3.5 mph - N/A   Clear
6:22 PM 35.6 °F 32.8 °F 8.6 °F 33% 30.32 in 10.0 mi NNW 3.5 mph - N/A   Clear
6:42 PM 33.8 °F - 10.4 °F 38% 30.32 in 10.0 mi Calm Calm - N/A   Clear
7:02 PM 33.8 °F 30.8 °F 10.4 °F 38% 30.33 in 10.0 mi NW 3.5 mph - N/A   Clear
7:22 PM 33.8 °F 30.8 °F 10.4 °F 38% 30.33 in 10.0 mi North 3.5 mph - N/A   Clear
7:42 PM 32.0 °F - 12.2 °F 44% 30.32 in 10.0 mi Calm Calm - N/A   Scattered Clouds
8:02 PM 33.8 °F - 12.2 °F 41% 30.31 in 10.0 mi Calm Calm - N/A   Mostly Cloudy
8:22 PM 32.0 °F - 14.0 °F 48% 30.31 in 10.0 mi Calm Calm - N/A   Scattered Clouds
8:42 PM 32.0 °F - 15.8 °F 51% 30.31 in 10.0 mi Calm Calm - N/A   Mostly Cloudy
9:02 PM 32.0 °F - 17.6 °F 55% 30.31 in 10.0 mi Calm Calm - N/A   Mostly Cloudy
9:22 PM 33.8 °F - 15.8 °F 48% 30.31 in 10.0 mi Calm Calm - N/A   Overcast
9:42 PM 33.8 °F - 15.8 °F 48% 30.30 in 10.0 mi Calm Calm - N/A   Mostly Cloudy
10:02 PM 32.0 °F - 14.0 °F 48% 30.30 in 10.0 mi Calm Calm - N/A   Mostly Cloudy
10:22 PM 32.0 °F - 12.2 °F 44% 30.30 in 10.0 mi Calm Calm - N/A   Mostly Cloudy
10:42 PM 32.0 °F - 17.6 °F 55% 30.30 in 10.0 mi Calm Calm - N/A   Scattered Clouds
11:02 PM 32.0 °F - 17.6 °F 55% 30.31 in 10.0 mi Calm Calm - N/A   Scattered Clouds
11:22 PM 33.8 °F - 14.0 °F 44% 30.30 in 10.0 mi Calm Calm - N/A   Clear
11:43 PM 32.0 °F - 17.6 °F 55% 30.30 in 10.0 mi Calm Calm - N/A   Scattered Clouds